Dewpoint
48 47 46 45 43 41 41 39 38 36 36 36 35 32 32 32 31 34 38 39 41 41 40 39 41 40 39 38 35 33 31 29 27 24 24 24 25 25
46 45 44 43 43 43 42 42 41 39 37 35 33 32 32 31 31 34 36 39 40 41 40 39 39 39 39 38 37 34 31 30 26 24 23 23 23 24
45 44 43 43 43 43 42 41 40 38 35 36 34 33 32 31 31 31 34 35 37 38 40 40 39 38 38 38 37 36 34 31 27 24 22 23 22 22
44 43 42 43 42 41 40 39 38 38 37 36 36 34 33 32 33 33 33 32 33 34 35 38 39 38 37 37 37 36 35 35 31 27 24 22 22 22
43 42 42 42 40 39 38 38 37 37 37 36 35 35 34 34 34 33 33 33 32 32 33 34 36 39 38 37 36 35 35 34 32 31 30 29 26 25
43 42 42 41 40 39 38 37 37 36 35 33 33 32 32 32 32 30 29 30 30 30 30 30 31 34 37 37 36 35 34 33 33 33 32 31 32 32
42 41 41 41 40 39 38 36 33 30 29 29 28 28 28 28 28 29 29 30 30 30 29 29 29 29 31 34 36 37 35 33 30 33 32 33 32 27
40 40 40 40 34 32 31 31 30 28 27 27 26 24 25 26 28 28 28 25 24 27 27 28 27 25 25 27 29 32 30 30 30 30 31 29 26 28
39 38 35 31 31 30 28 25 22 22 26 24 19 21 22 24 27 26 24 24 23 23 27 26 29 28 28 29 30 31 34 30 28 28 28 26 29 28
36 35 30 29 27 25 21 17 18 21 22 22 21 21 23 24 26 25 25 26 25 24 27 25 26 27 28 30 32 33 31 28 27 28 27 28 27 25
28 27 25 23 24 22 20 19 23 24 25 25 27 27 27 28 28 28 26 25 23 22 25 26 26 27 27 25 26 25 27 27 26 25 25 24 25 26
23 22 22 22 21 21 24 24 23 22 22 23 25 25 25 25 26 27 27 24 24 24 23 26 26 26 25 24 22 22 27 26 23 22 21 22 22 24
19 18 20 20 21 24 25 22 20 21 19 20 21 19 20 20 21 22 22 24 24 25 27 28 27 25 26 23 18 20 20 18 18 19 21 23 23 24
17 19 19 21 23 24 20 18 18 18 18 18 17 16 16 17 18 19 21 21 24 28 30 31 28 26 24 22 19 18 18 18 19 18 19 21 23 24
19 19 20 22 22 20 17 17 17 17 16 15 15 14 15 15 17 17 19 20 23 31 32 32 30 28 26 21 18 18 18 19 20 19 19 20 20 22
19 20 20 21 19 18 18 17 15 15 15 14 14 14 13 14 15 16 16 17 19 26 31 31 30 29 25 22 21 20 20 18 19 20 20 20 23 21
21 19 15 15 14 16 15 14 13 13 12 12 13 11 10 11 13 14 14 16 16 21 26 27 29 29 28 26 24 22 23 20 20 20 21 20 21 21
18 14 12 11 12 13 13 12 11 11 10 10 10 10 8 10 10 10 12 14 15 15 24 25 25 26 26 26 28 24 23 20 19 20 22 22 20 20
14 13 10 11 12 11 11 10 9 10 8 7 10 8 8 9 6 8 10 12 12 14 15 27 26 24 21 19 21 28 22 20 20 19 22 21 20 20
16 13 12 13 11 9 9 8 8 6 5 6 8 7 7 7 5 6 8 10 10 12 14 24 26 26 23 19 19 19 25 21 19 18 18 20 21 23
14 14 13 11 10 8 8 8 6 3 3 4 5 5 5 5 4 5 7 7 9 11 12 14 19 27 28 23 20 16 14 24 22 20 19 21 19 21
13 12 12 10 8 8 7 5 3 3 4 5 4 3 3 4 4 5 5 5 7 10 12 14 15 24 23 22 19 15 11 13 21 27 25 23 18 14
11 10 9 7 7 6 4 3 3 2 2 3 2 4 3 3 5 5 5 5 7 8 10 12 13 21 24 22 21 14 14 14 18 22 25 27 26 23
Wind_Speed
12 11 12 9 8 8 5 4 6 5 5 5 4 4 8 9 13 12 14 19 23 26 27 28 28 28 27 28 27 24 23 21 20 19 18 19 20 21
13 14 10 9 10 7 5 3 5 7 6 5 5 7 10 12 14 10 14 18 18 24 27 28 30 30 31 31 28 27 27 25 23 22 20 20 20 21
13 15 15 15 13 8 6 3 5 5 9 5 5 6 9 16 16 13 14 15 15 21 26 28 30 32 31 29 31 28 26 28 26 24 22 22 22 21
18 17 17 12 11 7 5 3 3 3 4 13 8 8 9 13 16 17 18 12 14 17 23 28 32 31 31 37 27 26 29 31 25 25 24 23 24 23
18 16 15 16 11 9 5 0 3 7 9 8 9 5 7 9 13 12 14 14 13 17 23 27 27 31 32 32 33 32 30 32 26 26 23 23 25 23
16 16 15 13 12 10 6 2 4 8 8 9 9 9 7 6 9 14 18 12 18 14 17 20 22 24 30 33 32 32 31 25 20 25 23 23 23 23
13 13 12 10 8 6 2 1 1 2 5 6 8 7 8 9 13 10 17 19 19 14 19 18 18 18 18 20 25 26 18 16 20 28 23 22 20 18
17 13 9 9 12 15 10 7 3 1 5 5 8 14 12 14 10 13 15 19 24 11 14 20 13 16 16 14 19 20 19 19 28 23 22 19 17 16
14 12 11 9 10 8 8 4 2 3 4 7 13 13 14 13 15 17 15 17 22 21 18 27 14 19 15 14 16 16 15 25 20 20 17 15 15 14
10 10 12 10 9 6 3 4 5 6 6 6 8 13 13 13 14 16 17 19 20 19 14 24 21 21 12 12 15 16 22 18 17 16 13 12 14 16
13 12 11 9 7 5 4 6 7 7 7 11 14 17 18 20 19 16 16 16 22 22 9 15 20 15 7 12 13 16 17 16 15 12 11 13 14 15
10 10 10 7 5 5 4 4 6 8 11 12 11 11 13 15 18 14 15 18 18 20 9 10 14 7 6 4 8 11 11 14 13 10 10 12 15 12
8 6 5 5 5 5 5 4 4 6 8 9 9 10 10 11 12 11 12 16 21 22 14 8 9 8 8 3 2 6 12 10 8 7 10 13 13 12
6 5 3 4 4 5 5 5 6 5 6 8 8 9 11 12 13 15 18 19 21 26 22 15 8 12 7 4 4 4 7 10 8 11 12 11 11 13
6 4 3 3 5 4 4 5 6 6 8 9 10 11 13 15 16 18 18 18 23 21 17 13 13 11 10 8 5 6 6 7 10 11 11 10 11 8
5 4 3 5 5 4 5 6 7 8 9 10 11 12 13 14 15 15 20 21 21 17 14 13 13 11 9 12 10 8 9 6 4 7 7 8 8 9
5 6 4 3 3 3 4 5 6 7 9 10 11 13 15 16 15 15 16 19 16 18 11 8 10 12 12 9 10 12 10 11 13 11 4 10 10 11
4 4 3 3 2 1 3 4 5 7 9 10 10 11 14 15 17 18 16 16 18 19 19 12 9 6 7 8 15 11 11 12 12 8 6 8 13 9
5 4 3 2 1 1 2 3 6 5 8 9 10 11 13 13 17 17 16 17 20 18 21 13 9 11 10 13 3 19 14 11 8 6 7 9 11 13
5 5 2 2 0 3 4 6 5 7 9 9 9 12 12 13 14 14 15 16 19 20 20 15 9 11 12 13 7 6 16 12 8 9 7 4 7 9
3 1 2 1 2 3 5 5 4 10 11 11 9 13 14 14 14 14 16 17 19 17 18 19 16 17 7 7 4 5 5 12 10 9 4 4 2 1
1 1 1 1 3 4 4 5 9 10 10 9 11 13 14 13 12 14 15 16 17 17 18 19 19 14 8 11 11 8 5 3 4 9 13 11 4 3
2 1 1 2 3 4 7 8 9 11 10 13 13 11 14 14 12 13 14 15 17 17 17 18 18 16 10 11 9 10 6 4 3 4 5 13 14 11
Wind_Direction
177 169 173 166 175 164 156 166 179 242 255 251 267 300 285 274 274 265 247 245 236 233 233 233 233 232 234 236 238 240 247 251 255 259 268 277 280 283
165 166 162 154 147 143 148 180 217 228 256 223 258 268 281 284 279 265 256 252 250 241 239 237 235 237 237 236 234 237 242 245 250 252 262 269 274 277
158 166 167 161 168 158 159 192 231 217 253 287 264 274 275 275 280 279 273 261 252 249 246 245 244 242 242 243 238 240 245 247 246 251 257 261 270 276
175 170 170 164 177 165 164 207 277 283 266 290 273 271 264 274 276 284 284 273 258 257 253 247 245 244 240 246 234 237 248 251 248 251 255 259 266 275
168 171 174 175 176 169 161 286 305 303 295 280 289 281 281 288 300 297 291 288 279 270 262 255 251 245 249 240 232 233 238 245 244 249 247 253 260 269
169 171 172 176 175 188 183 289 308 303 308 308 299 288 281 295 290 297 301 288 288 282 273 271 265 259 252 242 238 235 241 233 242 254 248 253 256 263
171 165 168 167 181 139 160 263 325 315 318 306 301 292 295 303 304 300 295 298 292 277 280 275 264 264 257 252 254 255 232 234 256 249 248 254 252 253
170 164 159 137 115 111 106 88 85 345 293 285 289 297 296 300 305 302 300 301 301 287 270 282 273 264 252 237 236 236 224 241 247 247 248 237 247 257
163 156 122 110 105 108 86 78 23 333 273 289 293 292 295 293 295 296 289 283 284 289 295 285 274 263 252 245 233 239 247 240 242 252 231 244 250 254
121 128 128 122 85 81 59 347 342 339 327 310 277 280 272 281 283 282 286 288 285 282 263 276 285 270 254 245 248 238 229 232 246 231 237 237 249 262
105 103 111 100 85 61 43 352 342 342 335 315 304 302 305 303 297 295 287 284 287 290 281 266 275 268 252 243 234 235 233 227 222 216 232 258 269 274
105 95 87 94 70 43 59 26 350 338 333 324 313 305 297 292 294 282 280 283 282 288 284 267 269 224 269 249 239 231 215 193 203 235 261 269 276 279
129 116 88 54 37 44 67 61 358 0 335 317 310 304 306 311 302 300 299 293 281 273 278 242 266 236 226 230 271 200 181 192 226 261 265 270 272 273
118 104 68 35 58 86 67 25 16 2 332 322 317 320 317 315 316 311 301 292 274 265 273 266 263 223 211 182 203 195 207 229 241 255 260 267 279 284
102 90 60 75 96 84 49 32 25 355 349 341 333 325 320 317 313 318 311 301 306 260 256 249 250 230 217 214 194 185 203 246 233 242 257 259 280 283
92 78 79 97 82 56 49 31 12 3 346 335 326 323 321 323 325 324 323 325 317 289 242 241 241 221 217 225 210 225 215 239 232 235 246 279 276 265
136 122 101 72 43 37 29 5 359 351 347 339 328 328 329 326 322 326 322 319 313 309 276 255 240 227 224 217 225 229 244 252 253 263 250 280 274 277
117 122 100 62 35 1 352 343 342 342 339 329 322 328 325 322 325 323 324 319 317 318 291 256 241 229 216 236 224 231 237 248 258 261 241 254 282 281
120 120 132 143 165 340 336 330 320 335 327 321 314 323 319 323 326 322 318 320 319 322 315 276 222 218 219 231 238 211 230 238 241 260 238 233 266 287
142 154 160 168 316 324 324 317 309 328 321 315 306 316 308 319 318 316 316 320 319 318 314 294 238 227 211 228 216 226 215 234 225 247 257 253 252 273
137 156 142 90 343 324 314 304 302 315 311 311 303 313 308 322 315 310 311 319 311 312 317 315 315 286 219 127 195 223 240 227 219 228 223 227 229 244
175 177 127 4 318 310 312 297 310 312 315 305 306 307 303 309 299 304 310 316 311 308 305 306 308 292 185 208 215 210 212 237 246 245 221 218 188 204
126 83 8 329 323 310 308 312 312 310 305 306 306 302 301 301 296 300 300 305 306 307 311 313 320 305 219 208 196 201 201 227 222 222 250 232 232 236